Location: Unspecified
(58.7730°N, 5.8460°E)
Time: 10:19:45
(UTC+02:00)

CZ-3 Stage 3 - Visible Passes

Search period start: 23 September 2014 00:00
Search period end: 03 October 2014 00:00
Orbit: 410 x 34835 km, 30.8° (Epoch: 20 September)

Date Brightness Start Highest point End Pass type
(mag) Time Alt. Az. Time Alt. Az. Time Alt. Az.
23 Sep 7.8 05:56:08 10° SSW 08:18:20 27° S 08:32:37 10° SE visible
24 Sep 8.4 02:21:08 10° SSE 04:20:56 19° SE 04:52:08 10° ESE visible
26 Sep 7.7 05:45:06 10° SSW 08:15:49 27° S 08:29:56 10° SE visible
27 Sep 8.3 02:03:57 10° SSE 04:18:41 21° SSE 04:50:27 10° ESE visible
29 Sep 7.7 05:33:32 10° SSW 08:13:10 28° S 08:27:07 10° SE visible
30 Sep 8.2 01:46:54 10° SSE 04:16:17 22° SSE 04:48:27 10° ESE visible
02 Oct 7.6 05:21:21 10° SSW 08:10:21 28° S 08:24:09 10° SE visible
